TimeEST,TemperatureF,Dew PointF,Humidity,Sea Level PressureIn,VisibilityMPH,Wind Direction,Wind SpeedMPH,Gust SpeedMPH,PrecipitationIn,Events,Conditions,WindDirDegrees,DateUTC
12:53 AM,75.0,71.1,87,30.06,10.0,North,10.4,-,N/A,,Overcast,350,2013-12-16 05:53:00
1:18 AM,75.0,70.0,84,30.06,10.0,North,9.2,-,N/A,,Overcast,350,2013-12-16 06:18:00
1:53 AM,73.9,70.0,87,30.05,10.0,North,6.9,-,N/A,,Scattered Clouds,10,2013-12-16 06:53:00
2:30 AM,73.9,70.0,87,30.05,10.0,North,6.9,-,N/A,,Mostly Cloudy,350,2013-12-16 07:30:00
2:42 AM,75.0,70.0,84,30.05,10.0,North,5.8,-,N/A,,Mostly Cloudy,360,2013-12-16 07:42:00
2:53 AM,75.0,70.0,84,30.04,10.0,NNE,5.8,-,N/A,,Overcast,20,2013-12-16 07:53:00
3:22 AM,73.9,70.0,87,30.04,10.0,North,8.1,-,N/A,,Overcast,10,2013-12-16 08:22:00
3:32 AM,73.9,70.0,87,30.04,10.0,North,10.4,-,N/A,,Overcast,10,2013-12-16 08:32:00
3:50 AM,73.4,69.8,88,30.04,10.0,North,9.2,-,N/A,,Mostly Cloudy,10,2013-12-16 08:50:00
3:53 AM,73.0,70.0,90,30.04,10.0,North,10.4,-,N/A,,Overcast,10,2013-12-16 08:53:00
4:53 AM,73.0,68.0,84,30.05,10.0,NNE,10.4,-,N/A,,Overcast,20,2013-12-16 09:53:00
5:06 AM,73.0,66.9,81,30.05,10.0,North,10.4,-,N/A,,Overcast,10,2013-12-16 10:06:00
5:53 AM,73.0,66.9,81,30.06,10.0,NNE,9.2,-,N/A,,Overcast,20,2013-12-16 10:53:00
6:27 AM,72.0,66.0,81,30.06,10.0,NNE,9.2,-,N/A,,Overcast,20,2013-12-16 11:27:00
6:53 AM,72.0,66.0,81,30.07,10.0,NNE,11.5,-,N/A,,Mostly Cloudy,20,2013-12-16 11:53:00
7:53 AM,71.1,64.9,81,30.10,10.0,NNE,12.7,-,N/A,,Clear,20,2013-12-16 12:53:00
8:53 AM,72.0,64.9,78,30.12,10.0,NNE,11.5,-,N/A,,Mostly Cloudy,20,2013-12-16 13:53:00
9:53 AM,73.0,66.0,79,30.13,10.0,North,11.5,-,N/A,,Scattered Clouds,10,2013-12-16 14:53:00
10:53 AM,73.9,66.0,76,30.13,10.0,NNE,11.5,-,N/A,,Overcast,20,2013-12-16 15:53:00
11:53 AM,75.9,64.9,69,30.11,10.0,North,10.4,-,N/A,,Partly Cloudy,10,2013-12-16 16:53:00
12:53 PM,73.9,64.0,71,30.08,10.0,NNE,8.1,-,N/A,,Overcast,20,2013-12-16 17:53:00
1:53 PM,75.0,63.0,66,30.07,10.0,North,6.9,-,N/A,,Overcast,10,2013-12-16 18:53:00
2:53 PM,75.0,63.0,66,30.08,10.0,North,8.1,-,N/A,,Mostly Cloudy,360,2013-12-16 19:53:00
3:05 PM,75.9,63.0,64,30.07,10.0,North,10.4,-,N/A,,Mostly Cloudy,360,2013-12-16 20:05:00
3:25 PM,75.0,64.9,71,30.07,10.0,North,8.1,-,N/A,,Mostly Cloudy,360,2013-12-16 20:25:00
3:53 PM,73.9,64.9,73,30.07,10.0,NNW,11.5,-,N/A,,Partly Cloudy,340,2013-12-16 20:53:00
4:53 PM,73.0,64.9,76,30.08,10.0,North,10.4,-,N/A,,Clear,350,2013-12-16 21:53:00
5:53 PM,72.0,64.9,78,30.11,10.0,North,11.5,-,N/A,,Mostly Cloudy,350,2013-12-16 22:53:00
6:53 PM,72.0,64.9,78,30.12,10.0,North,10.4,-,N/A,,Overcast,360,2013-12-16 23:53:00
7:53 PM,73.0,64.9,76,30.13,10.0,North,9.2,-,N/A,,Overcast,10,2013-12-17 00:53:00
8:53 PM,72.0,64.0,76,30.15,10.0,North,10.4,-,N/A,,Scattered Clouds,360,2013-12-17 01:53:00
9:53 PM,71.1,63.0,75,30.15,10.0,NNE,11.5,-,N/A,,Clear,20,2013-12-17 02:53:00
10:53 PM,71.1,62.1,73,30.15,10.0,NNE,11.5,-,N/A,,Overcast,20,2013-12-17 03:53:00
11:21 PM,70.0,61.0,73,30.15,10.0,NNE,11.5,-,N/A,,Mostly Cloudy,20,2013-12-17 04:21:00
11:48 PM,69.8,60.8,73,30.14,10.0,NNE,8.1,-,N/A,,Partly Cloudy,20,2013-12-17 04:48:00
11:53 PM,69.1,61.0,75,30.14,10.0,NNE,9.2,-,N/A,,Partly Cloudy,20,2013-12-17 04:53:00